Flag for Germany Past Weather in Leinfelden-Echterdingen, Baden-Württemberg, Germany — Yesterday and Last 2 Weeks

Now
82 °F

Passing clouds.


Feels Like: 82 °F
Forecast: 56 / 83 °F
Wind: 12 mph from East

Location: Stuttgart-Echterdingen

Current Time: Aug 24, 2016 at 2:27:07 PM

Latest Report: Aug 24, 2016 at 1:50 PM


Visibility: N/A

Pressure: 30.21 "Hg

Humidity: 45%

Dew Point: 59 °F

Location of Leinfelden-EchterdingenLocation

Past Weather in Leinfelden-Echterdingen — Graph

°F

Leinfelden-Echterdingen Temperature Yesterday

Maximum temperature yesterday: 81 °F (at 3:50 PM)
Minimum temperature yesterday: 54 °F (at 5:20 AM)
Average temperature yesterday: 68 °F

High & Low Weather Summary for the Past Weeks

 TemperatureHumidityPressure
High82 °F (Aug 15, 3:50 PM)100% (Aug 13, 12:20 AM)30.42 "Hg (Aug 13, 12:20 AM)
Low45 °F (Aug 11, 5:20 AM)37% (Aug 15, 4:20 PM)29.83 "Hg (Aug 18, 5:20 AM)
Average65 °F71%30.13 "Hg
* Reported Aug 9 1:20 PM — Aug 24 1:20 PM, Leinfelden-Echterdingen, Weather by CustomWeather, © 2016

Note: Actual official high and low records may vary slightly from our data, if they occured in-between our weather recording intervals... More about our weather records

Advertising

Leinfelden-Echterdingen Weather History for the Previous 24 Hours

Scroll right to see more
 ConditionsComfort  
Time TempWeatherWind HumidityBarometerVisibility
1:20 PM
Wed, Aug 24
82 °FPassing clouds.10 mph42%30.21 "HgN/A
12:50 PM81 °FSunny.12 mph45%30.21 "Hg10 mi
12:20 PM81 °FPassing clouds.10 mph48%30.21 "HgN/A
11:50 AM79 °FPassing clouds.8 mph48%30.24 "HgN/A
11:20 AM77 °FPassing clouds.6 mph54%30.24 "HgN/A
10:50 AM75 °FPassing clouds.6 mph61%30.24 "HgN/A
10:20 AM73 °FSunny.7 mph65%30.24 "Hg10 mi
9:50 AM72 °FPassing clouds.6 mph69%30.24 "HgN/A
9:20 AM68 °FPassing clouds.5 mph73%30.24 "HgN/A
8:50 AM66 °FPassing clouds.3 mph78%30.24 "HgN/A
8:20 AM64 °FSunny.2 mph78%30.24 "Hg10 mi
7:50 AM64 °FSunny.2 mph83%30.24 "Hg10 mi
7:20 AM61 °FClear.1 mph88%30.24 "Hg10 mi
6:50 AM59 °FClear.2 mph88%30.24 "Hg10 mi
6:20 AM57 °FClear.1 mph88%30.24 "Hg10 mi
5:50 AM57 °FClear.5 mph88%30.24 "Hg10 mi
5:20 AM57 °FClear.5 mph88%30.24 "Hg10 mi
4:50 AM59 °FClear.3 mph94%30.24 "Hg10 mi
4:20 AM59 °FClear.3 mph88%30.24 "Hg10 mi
3:50 AM61 °FClear.2 mph83%30.27 "Hg10 mi
3:20 AM63 °FClear.2 mph83%30.27 "Hg10 mi
2:50 AM59 °FClear.2 mph88%30.27 "Hg10 mi
2:20 AM61 °FClear.1 mph88%30.27 "Hg10 mi
1:50 AM61 °FClear.1 mph88%30.27 "Hg10 mi
1:20 AM63 °FClear.1 mph83%30.27 "Hg10 mi
12:50 AM64 °FClear.2 mph83%30.27 "Hg10 mi
12:20 AM64 °FClear.3 mph83%30.27 "Hg10 mi
11:50 PM
Tue, Aug 23
64 °FClear.2 mph78%30.30 "Hg10 mi
11:20 PM66 °FClear.1 mph78%30.30 "Hg10 mi
10:50 PM68 °FClear.2 mph73%30.30 "Hg10 mi
10:20 PM70 °FClear.2 mph69%30.30 "Hg10 mi
9:50 PM72 °FClear.5 mph65%30.30 "Hg10 mi
9:20 PM72 °FSunny.1 mph65%30.30 "Hg10 mi
8:50 PM75 °FPassing clouds.3 mph57%30.27 "HgN/A
8:20 PM77 °FSunny.3 mph51%30.27 "Hg10 mi
7:50 PM79 °FSunny.3 mph51%30.27 "Hg10 mi
7:20 PM79 °FPassing clouds.5 mph51%30.27 "HgN/A
6:50 PM81 °FPassing clouds.5 mph45%30.27 "HgN/A
6:20 PM81 °FPassing clouds.5 mph45%30.27 "HgN/A
5:50 PM81 °FPassing clouds.5 mph45%30.30 "HgN/A
5:20 PM81 °FSunny.5 mph48%30.30 "Hg10 mi
4:50 PM81 °FSunny.2 mph42%30.30 "Hg10 mi
4:20 PM81 °FPassing clouds.6 mph45%30.30 "HgN/A
3:50 PM81 °FPassing clouds.6 mph45%30.30 "HgN/A
3:20 PM79 °FPassing clouds.5 mph48%30.30 "HgN/A
2:50 PM79 °FPassing clouds.6 mph48%30.33 "HgN/A
2:20 PM79 °FSunny.5 mph48%30.33 "Hg10 mi
Weather by CustomWeather, © 2016

See weather overviewHow to use our weather pages